contact:dominique.lefevre@mio.osupytheas.fr, maurice.libes@osupytheas.fr, didier.mallarino@osupytheas.fr
Project:EMSO http://www.emso-fr.org/EMSO-France
Depth: 2436.0 m
Title:EMSO Ligure Ouest : Data MII capteur CSTAR
DateTime,Latitude,Longitude,Instrument_Serial,Reference_Counts,Signal_Counts,Corrected_Signal_raw_counts,Calculated_Beam_c_inverse_meters,Internal_thermistor_counts
DateTime,Latitude,Longitude,Instrument_Serial,Reference_Counts,Signal_Counts,Corrected_Signal_raw_counts,Calculated_Beam_c_inverse_meters,Internal_thermistor_counts
2023-03-08T00:02:09,42.805,6.029,CST-1368DR,4360,4752,11578,01.197,551
2023-03-08T00:05:11,42.805,6.029,CST-1368DR,4360,4751,11575,01.198,551
2023-03-08T00:08:13,42.805,6.029,CST-1368DR,4360,4758,11592,01.192,551
2023-03-08T00:11:14,42.805,6.029,CST-1368DR,4360,4752,11578,01.197,551
2023-03-08T00:14:16,42.805,6.029,CST-1368DR,4360,4754,11583,01.195,551
2023-03-08T00:17:17,42.805,6.029,CST-1368DR,4360,4755,11584,01.195,551
2023-03-08T00:20:19,42.805,6.029,CST-1368DR,4360,4746,11562,01.202,551
2023-03-08T00:23:20,42.805,6.029,CST-1368DR,4360,4748,11569,01.200,551
2023-03-08T00:26:22,42.805,6.029,CST-1368DR,4360,4746,11563,01.202,551
2023-03-08T00:29:24,42.805,6.029,CST-1368DR,4360,4740,11548,01.207,551
2023-03-08T00:32:25,42.805,6.029,CST-1368DR,4360,4749,11571,01.199,551
2023-03-08T00:35:27,42.805,6.029,CST-1368DR,4360,4746,11563,01.202,551
2023-03-08T00:38:28,42.805,6.029,CST-1368DR,4360,4750,11573,01.198,551
2023-03-08T00:41:30,42.805,6.029,CST-1368DR,4360,4734,11533,01.212,551
2023-03-08T00:44:31,42.805,6.029,CST-1368DR,4360,4746,11562,01.202,551
2023-03-08T00:47:33,42.805,6.029,CST-1368DR,4360,4746,11563,01.202,551
2023-03-08T00:50:35,42.805,6.029,CST-1368DR,4360,4749,11569,01.200,551
2023-03-08T00:53:36,42.805,6.029,CST-1368DR,4360,4752,11577,01.197,551
2023-03-08T00:56:38,42.805,6.029,CST-1368DR,4360,4753,11581,01.196,551
2023-03-08T00:59:39,42.805,6.029,CST-1368DR,4360,4754,11583,01.195,551
2023-03-08T01:02:41,42.805,6.029,CST-1368DR,4360,4756,11588,01.193,551
2023-03-08T01:05:43,42.805,6.029,CST-1368DR,4360,4757,11590,01.193,551
2023-03-08T01:08:44,42.805,6.029,CST-1368DR,4360,4754,11582,01.195,551
2023-03-08T01:11:46,42.805,6.029,CST-1368DR,4360,4749,11571,01.199,551
2023-03-08T01:14:47,42.805,6.029,CST-1368DR,4360,4737,11540,01.210,551
2023-03-08T01:17:49,42.805,6.029,CST-1368DR,4360,4733,11530,01.213,551
2023-03-08T01:20:50,42.805,6.029,CST-1368DR,4360,4748,11569,01.200,551
2023-03-08T01:23:52,42.805,6.029,CST-1368DR,4360,4743,11557,01.204,551
2023-03-08T01:26:54,42.805,6.029,CST-1368DR,4360,4749,11571,01.199,551
2023-03-08T01:29:55,42.805,6.029,CST-1368DR,4360,4751,11576,01.197,551
2023-03-08T01:32:57,42.805,6.029,CST-1368DR,4360,4748,11569,01.200,551
2023-03-08T01:35:58,42.805,6.029,CST-1368DR,4360,4751,11575,01.198,551
2023-03-08T01:39:00,42.805,6.029,CST-1368DR,4360,4750,11573,01.198,551
2023-03-08T01:42:01,42.805,6.029,CST-1368DR,4360,4755,11586,01.194,551
2023-03-08T01:45:03,42.805,6.029,CST-1368DR,4360,4748,11568,01.200,551
2023-03-08T01:48:05,42.805,6.029,CST-1368DR,4360,4744,11558,01.204,551
2023-03-08T01:51:06,42.805,6.029,CST-1368DR,4360,4749,11569,01.200,551
2023-03-08T01:54:08,42.805,6.029,CST-1368DR,4360,4737,11541,01.210,551
2023-03-08T01:57:09,42.805,6.029,CST-1368DR,4360,4744,11557,01.204,551
2023-03-08T02:00:11,42.805,6.029,CST-1368DR,4360,4740,11549,01.207,551
2023-03-08T02:03:12,42.805,6.029,CST-1368DR,4360,4747,11565,01.201,551
2023-03-08T02:06:14,42.805,6.029,CST-1368DR,4360,4744,11557,01.204,551
2023-03-08T02:09:16,42.805,6.029,CST-1368DR,4360,4743,11555,01.205,551
2023-03-08T02:12:17,42.805,6.029,CST-1368DR,4360,4744,11559,01.203,551
2023-03-08T02:15:19,42.805,6.029,CST-1368DR,4360,4749,11569,01.200,551
2023-03-08T02:18:20,42.805,6.029,CST-1368DR,4360,4752,11579,01.196,551
2023-03-08T02:21:22,42.805,6.029,CST-1368DR,4360,4749,11571,01.199,551
2023-03-08T02:24:24,42.805,6.029,CST-1368DR,4360,4745,11560,01.203,551
2023-03-08T02:27:25,42.805,6.029,CST-1368DR,4360,4745,11560,01.203,551
2023-03-08T02:30:27,42.805,6.029,CST-1368DR,4360,4749,11571,01.199,551
2023-03-08T02:33:28,42.805,6.029,CST-1368DR,4360,4744,11557,01.204,551
2023-03-08T02:36:30,42.805,6.029,CST-1368DR,4360,4742,11554,01.205,551
2023-03-08T02:39:31,42.805,6.029,CST-1368DR,4360,4749,11569,01.200,551
2023-03-08T02:42:33,42.805,6.029,CST-1368DR,4360,4745,11561,01.203,551
2023-03-08T02:45:35,42.805,6.029,CST-1368DR,4360,4739,11545,01.208,551
2023-03-08T02:48:36,42.805,6.029,CST-1368DR,4360,4742,11553,01.205,551
2023-03-08T02:51:38,42.805,6.029,CST-1368DR,4360,4740,11549,01.207,551
2023-03-08T02:54:39,42.805,6.029,CST-1368DR,4360,4747,11566,01.201,551
2023-03-08T02:57:41,42.805,6.029,CST-1368DR,4360,4742,11554,01.205,551
2023-03-08T03:00:42,42.805,6.029,CST-1368DR,4360,4745,11560,01.203,551
2023-03-08T03:03:44,42.805,6.029,CST-1368DR,4360,4748,11567,01.201,551
2023-03-08T03:06:46,42.805,6.029,CST-1368DR,4360,4743,11555,01.205,551
2023-03-08T03:09:47,42.805,6.029,CST-1368DR,4360,4750,11572,01.199,551
2023-03-08T03:12:49,42.805,6.029,CST-1368DR,4360,4752,11577,01.197,551
2023-03-08T03:15:50,42.805,6.029,CST-1368DR,4360,4749,11571,01.199,551
2023-03-08T03:18:52,42.805,6.029,CST-1368DR,4360,4750,11572,01.199,551
2023-03-08T03:21:54,42.805,6.029,CST-1368DR,4360,4753,11579,01.196,551
2023-03-08T03:24:55,42.805,6.029,CST-1368DR,4360,4753,11580,01.196,551
2023-03-08T03:27:57,42.805,6.029,CST-1368DR,4360,4752,11578,01.197,551
2023-03-08T03:30:58,42.805,6.029,CST-1368DR,4360,4742,11554,01.205,551
2023-03-08T03:34:00,42.805,6.029,CST-1368DR,4360,4752,11578,01.197,551
2023-03-08T03:37:01,42.805,6.029,CST-1368DR,4360,4745,11560,01.203,551
2023-03-08T03:40:03,42.805,6.029,CST-1368DR,4360,4748,11569,01.200,551
2023-03-08T03:43:05,42.805,6.029,CST-1368DR,4360,4751,11576,01.197,551
2023-03-08T03:46:06,42.805,6.029,CST-1368DR,4360,4745,11561,01.203,551
2023-03-08T03:49:08,42.805,6.029,CST-1368DR,4360,4751,11576,01.197,551
2023-03-08T03:52:09,42.805,6.029,CST-1368DR,4360,4752,11577,01.197,551
2023-03-08T03:55:11,42.805,6.029,CST-1368DR,4360,4756,11586,01.194,551
2023-03-08T03:58:12,42.805,6.029,CST-1368DR,4360,4734,11533,01.212,551
2023-03-08T04:01:14,42.805,6.029,CST-1368DR,4360,4728,11518,01.218,551
2023-03-08T04:04:16,42.805,6.029,CST-1368DR,4360,4743,11557,01.204,551
2023-03-08T04:07:17,42.805,6.029,CST-1368DR,4360,4735,11537,01.211,551
2023-03-08T04:10:19,42.805,6.029,CST-1368DR,4360,4734,11533,01.212,551
2023-03-08T04:13:20,42.805,6.029,CST-1368DR,4360,4728,11520,01.217,551
2023-03-08T04:16:22,42.805,6.029,CST-1368DR,4360,4741,11550,01.206,551
2023-03-08T04:19:24,42.805,6.029,CST-1368DR,4360,4733,11530,01.213,551
2023-03-08T04:22:25,42.805,6.029,CST-1368DR,4360,4736,11540,01.210,551
2023-03-08T04:25:27,42.805,6.029,CST-1368DR,4360,4726,11515,01.219,551
2023-03-08T04:28:28,42.805,6.029,CST-1368DR,4360,4717,11492,01.227,551
2023-03-08T04:31:30,42.805,6.029,CST-1368DR,4360,4722,11505,01.222,551
2023-03-08T04:34:31,42.805,6.029,CST-1368DR,4360,4720,11499,01.224,551
2023-03-08T04:37:33,42.805,6.029,CST-1368DR,4360,4717,11491,01.227,551
2023-03-08T04:40:35,42.805,6.029,CST-1368DR,4360,4725,11512,01.220,551
2023-03-08T04:43:36,42.805,6.029,CST-1368DR,4360,4720,11501,01.223,551
2023-03-08T04:46:38,42.805,6.029,CST-1368DR,4360,4732,11529,01.214,551
2023-03-08T04:49:39,42.805,6.029,CST-1368DR,4360,4735,11537,01.211,551
2023-03-08T04:52:41,42.805,6.029,CST-1368DR,4360,4736,11539,01.210,551
2023-03-08T04:55:42,42.805,6.029,CST-1368DR,4360,4734,11535,01.212,551
2023-03-08T04:58:44,42.805,6.029,CST-1368DR,4360,4733,11532,01.213,551
2023-03-08T05:01:46,42.805,6.029,CST-1368DR,4360,4726,11515,01.219,551
2023-03-08T05:04:47,42.805,6.029,CST-1368DR,4360,4735,11537,01.211,551
2023-03-08T05:07:49,42.805,6.029,CST-1368DR,4360,4734,11535,01.212,551
2023-03-08T05:10:50,42.805,6.029,CST-1368DR,4360,4734,11535,01.212,551
2023-03-08T05:13:52,42.805,6.029,CST-1368DR,4360,4727,11516,01.218,551
2023-03-08T05:16:53,42.805,6.029,CST-1368DR,4360,4732,11529,01.214,551
2023-03-08T05:19:55,42.805,6.029,CST-1368DR,4360,4730,11525,01.215,551
2023-03-08T05:22:57,42.805,6.029,CST-1368DR,4360,4730,11524,01.215,551
2023-03-08T05:25:58,42.805,6.029,CST-1368DR,4360,4737,11541,01.210,551
2023-03-08T05:29:00,42.805,6.029,CST-1368DR,4360,4733,11532,01.213,551
2023-03-08T05:32:01,42.805,6.029,CST-1368DR,4360,4737,11541,01.210,551
2023-03-08T05:35:03,42.805,6.029,CST-1368DR,4360,4731,11526,01.215,551
2023-03-08T05:38:05,42.805,6.029,CST-1368DR,4360,4735,11537,01.211,551
2023-03-08T05:41:06,42.805,6.029,CST-1368DR,4360,4733,11532,01.213,551
2023-03-08T05:44:08,42.805,6.029,CST-1368DR,4360,4735,11537,01.211,551
2023-03-08T05:47:09,42.805,6.029,CST-1368DR,4360,4733,11532,01.213,551
2023-03-08T05:50:11,42.805,6.029,CST-1368DR,4360,4737,11541,01.210,551
2023-03-08T05:53:12,42.805,6.029,CST-1368DR,4360,4739,11547,01.207,551
2023-03-08T05:56:14,42.805,6.029,CST-1368DR,4360,4732,11530,01.213,551
2023-03-08T05:59:16,42.805,6.029,CST-1368DR,4360,4740,11547,01.207,551
2023-03-08T06:02:17,42.805,6.029,CST-1368DR,4360,4742,11554,01.205,551
2023-03-08T06:05:19,42.805,6.029,CST-1368DR,4360,4747,11565,01.201,551
2023-03-08T06:08:20,42.805,6.029,CST-1368DR,4360,4733,11531,01.213,551
2023-03-08T06:11:22,42.805,6.029,CST-1368DR,4360,4733,11531,01.213,551
2023-03-08T06:14:23,42.805,6.029,CST-1368DR,4360,4740,11548,01.207,551
2023-03-08T06:17:25,42.805,6.029,CST-1368DR,4360,4736,11540,01.210,551
2023-03-08T06:20:27,42.805,6.029,CST-1368DR,4360,4743,11555,01.205,551
2023-03-08T06:23:28,42.805,6.029,CST-1368DR,4360,4740,11547,01.207,551
2023-03-08T06:26:30,42.805,6.029,CST-1368DR,4360,4739,11545,01.208,551
2023-03-08T06:29:31,42.805,6.029,CST-1368DR,4360,4741,11550,01.206,551
2023-03-08T06:32:33,42.805,6.029,CST-1368DR,4360,4742,11554,01.205,551
2023-03-08T06:35:35,42.805,6.029,CST-1368DR,4360,4741,11551,01.206,551
2023-03-08T06:38:36,42.805,6.029,CST-1368DR,4360,4738,11544,01.209,551
2023-03-08T06:41:38,42.805,6.029,CST-1368DR,4360,4738,11544,01.209,551
2023-03-08T06:44:39,42.805,6.029,CST-1368DR,4360,4731,11527,01.214,551
2023-03-08T06:47:41,42.805,6.029,CST-1368DR,4360,4739,11546,01.208,551
2023-03-08T06:50:42,42.805,6.029,CST-1368DR,4360,4737,11541,01.210,551
2023-03-08T06:53:44,42.805,6.029,CST-1368DR,4360,4735,11537,01.211,551
2023-03-08T06:56:46,42.805,6.029,CST-1368DR,4360,4735,11537,01.211,551
2023-03-08T06:59:47,42.805,6.029,CST-1368DR,4360,4735,11536,01.211,551
2023-03-08T07:02:49,42.805,6.029,CST-1368DR,4360,4734,11534,01.212,551
2023-03-08T07:05:50,42.805,6.029,CST-1368DR,4360,4736,11539,01.210,551
2023-03-08T07:08:52,42.805,6.029,CST-1368DR,4360,4739,11546,01.208,551
2023-03-08T07:11:53,42.805,6.029,CST-1368DR,4360,4738,11544,01.209,551
2023-03-08T07:14:55,42.805,6.029,CST-1368DR,4360,4732,11528,01.214,551
2023-03-08T07:17:57,42.805,6.029,CST-1368DR,4360,4736,11539,01.210,551
2023-03-08T07:20:58,42.805,6.029,CST-1368DR,4360,4739,11547,01.207,551
2023-03-08T07:24:00,42.805,6.029,CST-1368DR,4360,4739,11546,01.208,551
2023-03-08T07:27:01,42.805,6.029,CST-1368DR,4360,4734,11534,01.212,551
2023-03-08T07:30:03,42.805,6.029,CST-1368DR,4360,4737,11542,01.209,551
2023-03-08T07:33:05,42.805,6.029,CST-1368DR,4360,4741,11550,01.206,551
2023-03-08T07:36:06,42.805,6.029,CST-1368DR,4360,4733,11531,01.213,551
2023-03-08T07:39:08,42.805,6.029,CST-1368DR,4360,4739,11546,01.208,551
2023-03-08T07:42:09,42.805,6.029,CST-1368DR,4360,4731,11526,01.215,551
2023-03-08T07:45:11,42.805,6.029,CST-1368DR,4360,4732,11529,01.214,551
2023-03-08T07:48:12,42.805,6.029,CST-1368DR,4360,4738,11544,01.209,551
2023-03-08T07:51:14,42.805,6.029,CST-1368DR,4360,4736,11538,01.211,551
2023-03-08T07:54:16,42.805,6.029,CST-1368DR,4360,4742,11552,01.206,551
2023-03-08T07:57:17,42.805,6.029,CST-1368DR,4360,4736,11538,01.211,551
2023-03-08T08:00:19,42.805,6.029,CST-1368DR,4360,4737,11541,01.210,551
2023-03-08T08:03:20,42.805,6.029,CST-1368DR,4360,4739,11546,01.208,551
2023-03-08T08:06:22,42.805,6.029,CST-1368DR,4360,4736,11538,01.211,551
2023-03-08T08:09:23,42.805,6.029,CST-1368DR,4360,4739,11546,01.208,551
2023-03-08T08:12:25,42.805,6.029,CST-1368DR,4360,4727,11517,01.218,551
2023-03-08T08:15:27,42.805,6.029,CST-1368DR,4360,4734,11533,01.212,551
2023-03-08T08:18:28,42.805,6.029,CST-1368DR,4360,4736,11538,01.211,551
2023-03-08T08:21:30,42.805,6.029,CST-1368DR,4360,4738,11544,01.209,551
2023-03-08T08:24:31,42.805,6.029,CST-1368DR,4360,4738,11543,01.209,551
2023-03-08T08:27:33,42.805,6.029,CST-1368DR,4360,4734,11535,01.212,551
2023-03-08T08:30:35,42.805,6.029,CST-1368DR,4360,4733,11531,01.213,551
2023-03-08T08:33:36,42.805,6.029,CST-1368DR,4360,4731,11526,01.215,551
2023-03-08T08:36:38,42.805,6.029,CST-1368DR,4360,4732,11529,01.214,551
2023-03-08T08:39:39,42.805,6.029,CST-1368DR,4360,4735,11536,01.211,551
2023-03-08T08:42:41,42.805,6.029,CST-1368DR,4360,4744,11558,01.204,551
2023-03-08T08:45:42,42.805,6.029,CST-1368DR,4360,4741,11551,01.206,551
2023-03-08T08:48:44,42.805,6.029,CST-1368DR,4360,4737,11541,01.210,551
2023-03-08T08:51:46,42.805,6.029,CST-1368DR,4360,4737,11542,01.209,551
2023-03-08T08:54:47,42.805,6.029,CST-1368DR,4360,4736,11540,01.210,551
2023-03-08T08:57:49,42.805,6.029,CST-1368DR,4360,4741,11551,01.206,551
2023-03-08T09:00:50,42.805,6.029,CST-1368DR,4360,4738,11544,01.209,551
2023-03-08T09:03:52,42.805,6.029,CST-1368DR,4360,4740,11549,01.207,551
2023-03-08T09:06:53,42.805,6.029,CST-1368DR,4360,4741,11550,01.206,551
2023-03-08T09:09:55,42.805,6.029,CST-1368DR,4360,4735,11537,01.211,551
2023-03-08T09:12:57,42.805,6.029,CST-1368DR,4360,4736,11538,01.211,551
2023-03-08T09:15:58,42.805,6.029,CST-1368DR,4360,4737,11541,01.210,551
2023-03-08T09:19:00,42.805,6.029,CST-1368DR,4360,4742,11552,01.206,551
2023-03-08T09:22:01,42.805,6.029,CST-1368DR,4360,4733,11532,01.213,551
2023-03-08T09:25:03,42.805,6.029,CST-1368DR,4360,4744,11558,01.204,551
2023-03-08T09:28:05,42.805,6.029,CST-1368DR,4360,4739,11546,01.208,551
2023-03-08T09:31:06,42.805,6.029,CST-1368DR,4360,4747,11566,01.201,551
2023-03-08T09:34:08,42.805,6.029,CST-1368DR,4360,4749,11569,01.200,551
2023-03-08T09:37:09,42.805,6.029,CST-1368DR,4360,4741,11551,01.206,551
2023-03-08T09:40:11,42.805,6.029,CST-1368DR,4360,4743,11557,01.204,551
2023-03-08T09:43:12,42.805,6.029,CST-1368DR,4360,4746,11563,01.202,551
2023-03-08T09:46:14,42.805,6.029,CST-1368DR,4360,4739,11546,01.208,551
2023-03-08T09:49:16,42.805,6.029,CST-1368DR,4360,4744,11558,01.204,551
2023-03-08T09:52:17,42.805,6.029,CST-1368DR,4360,4747,11566,01.201,551
2023-03-08T09:55:19,42.805,6.029,CST-1368DR,4360,4736,11538,01.211,551
2023-03-08T09:58:20,42.805,6.029,CST-1368DR,4360,4740,11549,01.207,551
2023-03-08T10:01:22,42.805,6.029,CST-1368DR,4360,4747,11565,01.201,551
2023-03-08T10:04:23,42.805,6.029,CST-1368DR,4360,4749,11571,01.199,551
2023-03-08T10:07:25,42.805,6.029,CST-1368DR,4360,4739,11546,01.208,551
2023-03-08T10:10:27,42.805,6.029,CST-1368DR,4360,4744,11559,01.203,551
2023-03-08T10:13:28,42.805,6.029,CST-1368DR,4360,4743,11555,01.205,551
2023-03-08T10:16:30,42.805,6.029,CST-1368DR,4360,4739,11546,01.208,551
2023-03-08T10:19:31,42.805,6.029,CST-1368DR,4360,4746,11562,01.202,551
2023-03-08T10:22:33,42.805,6.029,CST-1368DR,4360,4745,11561,01.203,551
2023-03-08T10:25:35,42.805,6.029,CST-1368DR,4360,4748,11568,01.200,551
2023-03-08T10:28:36,42.805,6.029,CST-1368DR,4360,4751,11575,01.198,551
2023-03-08T10:31:38,42.805,6.029,CST-1368DR,4360,4737,11542,01.209,551
2023-03-08T10:34:39,42.805,6.029,CST-1368DR,4360,4736,11538,01.211,551
2023-03-08T10:37:41,42.805,6.029,CST-1368DR,4360,4745,11560,01.203,551
2023-03-08T10:40:42,42.805,6.029,CST-1368DR,4360,4747,11566,01.201,551
2023-03-08T10:43:44,42.805,6.029,CST-1368DR,4360,4735,11537,01.211,551
2023-03-08T10:46:46,42.805,6.029,CST-1368DR,4360,4736,11540,01.210,551
2023-03-08T10:49:47,42.805,6.029,CST-1368DR,4360,4740,11549,01.207,551
2023-03-08T10:52:49,42.805,6.029,CST-1368DR,4360,4734,11535,01.212,551
2023-03-08T10:55:50,42.805,6.029,CST-1368DR,4360,4740,11547,01.207,551
2023-03-08T10:58:52,42.805,6.029,CST-1368DR,4360,4742,11554,01.205,551
2023-03-08T11:01:53,42.805,6.029,CST-1368DR,4360,4737,11541,01.210,551
2023-03-08T11:04:55,42.805,6.029,CST-1368DR,4360,4737,11541,01.210,551
2023-03-08T11:07:57,42.805,6.029,CST-1368DR,4360,4736,11538,01.211,551
2023-03-08T11:10:58,42.805,6.029,CST-1368DR,4360,4761,11599,01.190,551
2023-03-08T11:14:00,42.805,6.029,CST-1368DR,4360,4743,11557,01.204,551
2023-03-08T11:17:01,42.805,6.029,CST-1368DR,4360,4742,11554,01.205,551
2023-03-08T11:20:03,42.805,6.029,CST-1368DR,4360,4739,11545,01.208,551
2023-03-08T11:23:04,42.805,6.029,CST-1368DR,4360,4738,11544,01.209,551
2023-03-08T11:26:06,42.805,6.029,CST-1368DR,4360,4734,11533,01.212,551
2023-03-08T11:29:08,42.805,6.029,CST-1368DR,4360,4740,11549,01.207,551
2023-03-08T11:32:09,42.805,6.029,CST-1368DR,4360,4737,11541,01.210,551
2023-03-08T11:35:11,42.805,6.029,CST-1368DR,4360,4739,11547,01.207,551
2023-03-08T11:38:12,42.805,6.029,CST-1368DR,4360,4739,11546,01.208,551
2023-03-08T11:41:14,42.805,6.029,CST-1368DR,4360,4739,11546,01.208,551
2023-03-08T11:44:16,42.805,6.029,CST-1368DR,4360,4739,11546,01.208,551
2023-03-08T11:47:17,42.805,6.029,CST-1368DR,4360,4738,11544,01.209,551
2023-03-08T11:50:19,42.805,6.029,CST-1368DR,4360,4734,11535,01.212,551
2023-03-08T11:53:20,42.805,6.029,CST-1368DR,4360,4740,11547,01.207,551
2023-03-08T11:56:22,42.805,6.029,CST-1368DR,4360,4739,11546,01.208,551
2023-03-08T11:59:23,42.805,6.029,CST-1368DR,4360,4738,11544,01.209,551
2023-03-08T12:02:25,42.805,6.029,CST-1368DR,4360,4733,11530,01.213,551
2023-03-08T12:05:27,42.805,6.029,CST-1368DR,4360,4736,11539,01.210,551
2023-03-08T12:08:28,42.805,6.029,CST-1368DR,4360,4736,11539,01.210,551
2023-03-08T12:11:30,42.805,6.029,CST-1368DR,4360,4736,11538,01.211,551
2023-03-08T12:14:31,42.805,6.029,CST-1368DR,4360,4736,11538,01.211,551
2023-03-08T12:17:33,42.805,6.029,CST-1368DR,4360,4736,11539,01.210,551
2023-03-08T12:20:34,42.805,6.029,CST-1368DR,4360,4737,11540,01.210,551
2023-03-08T12:23:36,42.805,6.029,CST-1368DR,4360,4736,11539,01.210,551
2023-03-08T12:26:38,42.805,6.029,CST-1368DR,4360,4736,11540,01.210,551
2023-03-08T12:29:39,42.805,6.029,CST-1368DR,4360,4738,11543,01.209,551
2023-03-08T12:32:41,42.805,6.029,CST-1368DR,4360,4734,11533,01.212,551
2023-03-08T12:35:42,42.805,6.029,CST-1368DR,4360,4737,11540,01.210,551
2023-03-08T12:38:44,42.805,6.029,CST-1368DR,4360,4733,11530,01.213,551
2023-03-08T12:41:46,42.805,6.029,CST-1368DR,4359,4735,11539,01.210,551
2023-03-08T12:44:47,42.805,6.029,CST-1368DR,4360,4738,11543,01.209,551
2023-03-08T12:47:49,42.805,6.029,CST-1368DR,4360,4737,11541,01.210,551
2023-03-08T12:50:50,42.805,6.029,CST-1368DR,4359,4735,11538,01.211,551
2023-03-08T12:53:52,42.805,6.029,CST-1368DR,4359,4735,11540,01.210,551
2023-03-08T12:56:53,42.805,6.029,CST-1368DR,4359,4734,11535,01.212,551
2023-03-08T12:59:55,42.805,6.029,CST-1368DR,4360,4738,11544,01.209,551
2023-03-08T13:02:57,42.805,6.029,CST-1368DR,4359,4737,11545,01.208,551
2023-03-08T13:05:58,42.805,6.029,CST-1368DR,4359,4737,11544,01.209,551
2023-03-08T13:09:00,42.805,6.029,CST-1368DR,4360,4737,11541,01.210,551
2023-03-08T13:12:01,42.805,6.029,CST-1368DR,4359,4734,11537,01.211,551
2023-03-08T13:15:03,42.805,6.029,CST-1368DR,4360,4738,11544,01.209,551
2023-03-08T13:18:05,42.805,6.029,CST-1368DR,4359,4739,11548,01.207,551
2023-03-08T13:21:06,42.805,6.029,CST-1368DR,4360,4739,11547,01.207,551
2023-03-08T13:24:08,42.805,6.029,CST-1368DR,4359,4736,11541,01.210,551
2023-03-08T13:27:09,42.805,6.029,CST-1368DR,4360,4738,11543,01.209,551
2023-03-08T13:30:11,42.805,6.029,CST-1368DR,4360,4737,11541,01.210,551
2023-03-08T13:33:12,42.805,6.029,CST-1368DR,4359,4736,11541,01.210,551
2023-03-08T13:36:14,42.805,6.029,CST-1368DR,4360,4738,11544,01.209,551
2023-03-08T13:39:16,42.805,6.029,CST-1368DR,4360,4737,11541,01.210,551
2023-03-08T13:42:17,42.805,6.029,CST-1368DR,4360,4738,11544,01.209,551
2023-03-08T13:45:19,42.805,6.029,CST-1368DR,4360,4739,11546,01.208,551
2023-03-08T13:48:20,42.805,6.029,CST-1368DR,4359,4739,11548,01.207,551
2023-03-08T13:51:22,42.805,6.029,CST-1368DR,4360,4739,11546,01.208,551
2023-03-08T13:54:23,42.805,6.029,CST-1368DR,4360,4734,11535,01.212,551
2023-03-08T13:57:25,42.805,6.029,CST-1368DR,4360,4737,11541,01.210,551
2023-03-08T14:00:27,42.805,6.029,CST-1368DR,4359,4739,11548,01.207,551
2023-03-08T14:03:28,42.805,6.029,CST-1368DR,4360,4737,11542,01.209,551
2023-03-08T14:06:30,42.805,6.029,CST-1368DR,4360,4738,11544,01.209,551
2023-03-08T14:09:31,42.805,6.029,CST-1368DR,4360,4736,11539,01.210,551
2023-03-08T14:12:33,42.805,6.029,CST-1368DR,4359,4738,11545,01.208,551
2023-03-08T14:15:34,42.805,6.029,CST-1368DR,4360,4734,11535,01.212,551
2023-03-08T14:18:36,42.805,6.029,CST-1368DR,4359,4734,11536,01.211,551
2023-03-08T14:21:38,42.805,6.029,CST-1368DR,4360,4739,11545,01.208,551
2023-03-08T14:24:39,42.805,6.029,CST-1368DR,4360,4738,11543,01.209,551
2023-03-08T14:27:41,42.805,6.029,CST-1368DR,4360,4738,11544,01.209,551
2023-03-08T14:30:42,42.805,6.029,CST-1368DR,4359,4739,11549,01.207,551
2023-03-08T14:33:44,42.805,6.029,CST-1368DR,4360,4739,11545,01.208,551
2023-03-08T14:36:46,42.805,6.029,CST-1368DR,4360,4739,11545,01.208,551
2023-03-08T14:39:47,42.805,6.029,CST-1368DR,4359,4739,11548,01.207,551
2023-03-08T14:42:49,42.805,6.029,CST-1368DR,4359,4738,11546,01.208,551
2023-03-08T14:45:50,42.805,6.029,CST-1368DR,4360,4740,11547,01.207,551
2023-03-08T14:48:52,42.805,6.029,CST-1368DR,4359,4739,11548,01.207,551
2023-03-08T14:51:53,42.805,6.029,CST-1368DR,4360,4741,11550,01.206,551
2023-03-08T14:54:55,42.805,6.029,CST-1368DR,4360,4739,11547,01.207,551
2023-03-08T14:57:57,42.805,6.029,CST-1368DR,4360,4743,11557,01.204,551
2023-03-08T15:00:58,42.805,6.029,CST-1368DR,4359,4738,11545,01.208,551
2023-03-08T15:04:00,42.805,6.029,CST-1368DR,4360,4739,11545,01.208,551
2023-03-08T15:07:01,42.805,6.029,CST-1368DR,4359,4739,11548,01.207,551
2023-03-08T15:10:03,42.805,6.029,CST-1368DR,4360,4734,11533,01.212,551
2023-03-08T15:13:04,42.805,6.029,CST-1368DR,4359,4737,11545,01.208,551
2023-03-08T15:16:06,42.805,6.029,CST-1368DR,4360,4737,11542,01.209,551
2023-03-08T15:19:08,42.805,6.029,CST-1368DR,4360,4736,11540,01.210,551
2023-03-08T15:22:09,42.805,6.029,CST-1368DR,4360,4737,11540,01.210,551
2023-03-08T15:25:11,42.805,6.029,CST-1368DR,4360,4737,11541,01.210,551
2023-03-08T15:28:12,42.805,6.029,CST-1368DR,4359,4736,11541,01.210,551
2023-03-08T15:31:14,42.805,6.029,CST-1368DR,4359,4733,11533,01.212,551
2023-03-08T15:34:16,42.805,6.029,CST-1368DR,4359,4737,11544,01.209,551
2023-03-08T15:37:17,42.805,6.029,CST-1368DR,4360,4739,11547,01.207,551
2023-03-08T15:40:19,42.805,6.029,CST-1368DR,4359,4738,11547,01.207,551
2023-03-08T15:43:20,42.805,6.029,CST-1368DR,4359,4739,11549,01.207,551
2023-03-08T15:46:22,42.805,6.029,CST-1368DR,4359,4737,11544,01.209,551
2023-03-08T15:49:23,42.805,6.029,CST-1368DR,4360,4745,11561,01.203,551
2023-03-08T15:52:25,42.805,6.029,CST-1368DR,4359,4738,11546,01.208,551
2023-03-08T15:55:27,42.805,6.029,CST-1368DR,4359,4739,11549,01.207,551
2023-03-08T15:58:28,42.805,6.029,CST-1368DR,4359,4739,11549,01.207,551
2023-03-08T16:01:30,42.805,6.029,CST-1368DR,4359,4739,11548,01.207,551
2023-03-08T16:04:31,42.805,6.029,CST-1368DR,4359,4737,11543,01.209,551
2023-03-08T16:07:33,42.805,6.029,CST-1368DR,4359,4736,11541,01.210,551
2023-03-08T16:10:34,42.805,6.029,CST-1368DR,4359,4730,11526,01.215,551
2023-03-08T16:13:36,42.805,6.029,CST-1368DR,4359,4735,11539,01.210,551
2023-03-08T16:16:38,42.805,6.029,CST-1368DR,4359,4735,11539,01.210,551
2023-03-08T16:19:39,42.805,6.029,CST-1368DR,4359,4737,11543,01.209,551
2023-03-08T16:22:41,42.805,6.029,CST-1368DR,4359,4737,11543,01.209,551
2023-03-08T16:25:42,42.805,6.029,CST-1368DR,4359,4737,11543,01.209,551
2023-03-08T16:28:44,42.805,6.029,CST-1368DR,4359,4738,11545,01.208,551
2023-03-08T16:31:46,42.805,6.029,CST-1368DR,4359,4736,11540,01.210,551
2023-03-08T16:34:47,42.805,6.029,CST-1368DR,4359,4736,11540,01.210,551
2023-03-08T16:37:49,42.805,6.029,CST-1368DR,4359,4731,11530,01.213,551